This is the latest recevied weather packets stored in our database for station/object KC2BRB-1. If no packets are shown the sender has not sent any weather packets the latest 10 day(s).
| Time | Temp. | Humidity | Pressure | Rain* | Wind** | Luminosity | Snow |
|---|---|---|---|---|---|---|---|
| 1777909041 | 25° C | 48% | 1015.5 hPa | 0 mm | - | - | - |
| 1777909026 | 25° C | 46% | 1015.7 hPa | 0 mm | - | - | - |
| 1777908741 | 25° C | 46% | 1015.7 hPa | 0 mm | - | - | - |
| 1777908441 | 25° C | 46% | 1015.7 hPa | 0 mm | - | - | - |
| 1777908359 | 25° C | 49% | 1015.7 hPa | 0 mm | - | - | - |
| 1777908141 | 25° C | 49% | 1015.7 hPa | 0 mm | - | - | - |
| 1777907841 | 25° C | 49% | 1015.7 hPa | 0 mm | - | - | - |
| 1777907541 | 24.44° C | 48% | 1015.7 hPa | 0 mm | - | - | - |
| 1777907198 | 24.44° C | 52% | 1015.7 hPa | 0 mm | - | - | - |
| 1777906941 | 24.44° C | 52% | 1015.7 hPa | 0 mm | - | - | - |
| 1777906641 | 24.44° C | 52% | 1015.7 hPa | 0 mm | - | - | - |
| 1777906341 | 23.89° C | 57% | 1015.7 hPa | 0 mm | - | - | - |
| 1777905995 | 24.44° C | 58% | 1015.6 hPa | 0 mm | - | - | - |
| 1777905820 | 24.44° C | 58% | 1015.6 hPa | 0 mm | - | - | - |
| 1777905741 | 24.44° C | 58% | 1015.6 hPa | 0 mm | - | - | - |
| 1777905559 | 23.89° C | 58% | 1015.6 hPa | 0 mm | - | - | - |
| 1777905441 | 24.44° C | 58% | 1015.6 hPa | 0 mm | - | - | - |
| 1777905141 | 23.89° C | 58% | 1015.6 hPa | 0 mm | - | - | - |
| 1777905037 | 23.33° C | 60% | 1015.6 hPa | 0 mm | - | - | - |
| 1777904842 | 23.89° C | 58% | 1015.6 hPa | 0 mm | - | - | - |
| 1777904541 | 23.33° C | 60% | 1015.6 hPa | 0 mm | - | - | - |
| 1777904459 | 23.33° C | 60% | 1015.6 hPa | 0 mm | - | - | - |
| 1777904245 | 23.33° C | 63% | 1015.4 hPa | 0 mm | - | - | - |
| 1777904241 | 23.33° C | 60% | 1015.6 hPa | 0 mm | - | - | - |
| 1777903984 | 23.33° C | 63% | 1015.4 hPa | 0 mm | - | - | - |
* Rain latest hour (hover to see other rain measurements)
** Current wind speed in m/s (hover to see current wind gust speed)